This is the latest recevied weather packets stored in our database for station/object K6JWN. If no packets are shown the sender has not sent any weather packets the latest 10 day(s).
| Time | Temp. | Humidity | Pressure | Rain* | Wind** | Luminosity | Snow |
|---|---|---|---|---|---|---|---|
| 1778188757 | 26.67° C | 45% | 1015.9 hPa | 0 mm | - | - | - |
| 1778188157 | 25.56° C | 47% | 1016 hPa | 0 mm | - | - | - |
| 1778187557 | 26.11° C | 47% | 1016.2 hPa | 0 mm | - | - | - |
| 1778186957 | 26.11° C | 46% | 1016.3 hPa | 0 mm | - | - | - |
| 1778186357 | 25.56° C | 50% | 1016.5 hPa | 0 mm | - | - | - |
| 1778185757 | 25° C | 50% | 1016.6 hPa | 0 mm | - | - | - |
| 1778185157 | 24.44° C | 50% | 1016.6 hPa | 0 mm | - | - | - |
| 1778184557 | 24.44° C | 52% | 1016.7 hPa | 0 mm | - | - | - |
| 1778183957 | 23.89° C | 52% | 1016.7 hPa | 0 mm | - | - | - |
| 1778183357 | 23.89° C | 53% | 1016.9 hPa | 0 mm | - | - | - |
| 1778182757 | 23.89° C | 54% | 1017.1 hPa | 0 mm | - | - | - |
| 1778182157 | 23.33° C | 61% | 1017.3 hPa | 0 mm | - | - | - |
| 1778181557 | 23.33° C | 57% | 1017.3 hPa | 0 mm | - | - | - |
| 1778180957 | 22.78° C | 60% | 1017.4 hPa | 0 mm | - | - | - |
| 1778180357 | 22.78° C | 59% | 1017.5 hPa | 0 mm | - | - | - |
| 1778179757 | 22.78° C | 59% | 1017.6 hPa | 0 mm | - | - | - |
| 1778179157 | 21.67° C | 61% | 1017.7 hPa | 0 mm | - | - | - |
| 1778178557 | 21.67° C | 62% | 1017.7 hPa | 0 mm | - | - | - |
| 1778177957 | 21.11° C | 62% | 1017.6 hPa | 0 mm | - | - | - |
| 1778177357 | 20.56° C | 63% | 1017.7 hPa | 0 mm | - | - | - |
| 1778176757 | 20.56° C | 63% | 1017.8 hPa | 0 mm | - | - | - |
| 1778176157 | 20° C | 66% | 1017.8 hPa | 0 mm | - | - | - |
| 1778175557 | 19.44° C | 67% | 1017.8 hPa | 0 mm | - | - | - |
| 1778174957 | 19.44° C | 68% | 1018 hPa | 0 mm | - | - | - |
| 1778174357 | 18.33° C | 68% | 1017.9 hPa | 0 mm | - | - | - |
* Rain latest hour (hover to see other rain measurements)
** Current wind speed in m/s (hover to see current wind gust speed)